Location: Dojazd�w
(50.1203°N, 20.1135°E)
Time: 05:46:44
(UTC+00:00)

Daily predictions for brighter satellites

Satellite Brightness Start Highest point End
(mag) Time Altitude Azimuth Time Altitude Azimuth Time Altitude Azimuth
Meteor 2-19 Rocket 4.4 00:03:16 10° NNW 00:09:28 84° W 00:11:31 45° S
Okean 1 Rocket 3.5 00:09:30 48° WNW 00:09:33 48° WNW 00:13:48 10° N
SJ 16-02 1.5 00:09:53 60° W 00:10:07 61° WNW 00:14:31 10° NNE
SL-16 R/B 3.0 00:08:57 10° NW 00:13:48 34° W 00:13:48 34° W
Cosmos 2263 Rocket 2.9 00:14:58 34° SSE 00:16:32 42° ESE 00:21:45 10° NE
SL-14 R/B 3.6 00:13:50 10° NNW 00:17:08 53° WNW 00:17:08 53° WNW
Cosmos 724 4.3 00:12:57 10° NW 00:18:55 66° WSW 00:20:59 41° S
NOSS 2-3 (D) 4.1 00:21:05 46° SE 00:21:29 47° ESE 00:26:19 10° NE
MOZ.5/SAFIR/RUBIN 5/SL-8 3.8 00:22:13 57° WSW 00:22:33 58° W 00:27:14 10° NNW
SL-19 R/B 4.3 00:19:22 10° NNE 00:25:12 73° WNW 00:26:52 46° SW
Cosmos 1937 Rocket 3.5 00:27:08 51° SSW 00:28:30 83° ESE 00:33:52 10° NNE
CZ-4C R/B 3.1 00:29:47 69° NW 00:29:47 69° NW 00:33:09 10° NNW
Okean 1-7 Rocket 3.5 00:26:21 10° NNW 00:30:47 69° W 00:31:14 63° SW
ADEOS II 3.2 00:26:02 10° NNE 00:30:53 36° E 00:33:35 22° SSE
COBE Rocket 4.0 00:29:02 33° SE 00:31:02 64° ENE 00:35:40 10° N
Cosmos 990 Rocket 4.0 00:29:47 49° SW 00:31:03 68° WNW 00:36:14 10° NNE
Cosmos 2297 Rocket 3.6 00:28:55 20° W 00:31:46 30° NW 00:36:44 10° NNE
Cosmos 1626 Rocket 3.8 00:30:10 10° N 00:34:28 63° ENE 00:35:58 38° SE
CZ-4B R/B 4.1 00:30:22 10° NNE 00:34:57 45° E 00:36:44 31° SSE
Cosmos 2266 Rocket 3.9 00:29:22 10° NNW 00:35:44 77° W 00:38:25 36° S
Cosmos 1455 Rocket 3.0 00:35:30 61° SSW 00:36:14 81° W 00:40:44 10° N
ATLAS CENTAUR R/B 2.9 00:37:35 22° SE 00:38:07 23° ESE 00:41:15 10° ENE
USA 229 DEB 3.6 00:36:45 38° SW 00:39:33 89° NW 00:46:33 10° NE
UNK 3.8 00:38:59 52° SW 00:39:38 57° W 00:44:16 10° NNW
USA 229 3.6 00:36:53 38° SW 00:39:40 89° NW 00:46:38 10° NE
Cosmos 1726 2.8 00:39:49 40° SE 00:40:28 44° E 00:43:58 10° NNE
GEOS 3 Rocket 3.8 00:39:59 10° NE 00:45:22 63° SE 00:47:19 39° SSW
Meteor 1-21 Rocket 4.3 00:39:57 10° N 00:45:30 73° ENE 00:49:17 21° SSE
Cosmos 1898 Rocket 3.8 00:43:57 40° WSW 00:45:32 57° WNW 00:50:42 10° NNE
Cosmos 1932 4.4 00:41:12 10° NW 00:47:44 78° SW 00:54:05 10° SSE
Cosmos 1892 Rocket 4.3 00:43:41 10° NNW 00:47:47 36° W 00:47:51 36° W
Meteor 1-24 Rocket 4.2 00:43:26 10° NNW 00:48:19 36° W 00:49:06 34° WSW
CBERS-1 4.5 00:43:18 10° NNE 00:48:19 54° E 00:50:48 28° SSE
Meteor 2-10 4.5 00:46:10 30° S 00:48:55 65° E 00:54:35 10° NNE
NOSS 2-3 (C) 3.6 00:48:09 51° SSW 00:49:16 80° SE 00:54:30 10° NE
NOSS 3-1 (A) 3.3 00:48:36 39° SW 00:50:51 84° SE 00:57:25 10° NE
ARIANE 5 R/B 4.1 00:47:11 10° NNE 00:51:48 30° E 00:55:52 12° SSE
Cosmos 2084 4.4 00:52:15 31° SSE 00:53:19 36° ESE 00:57:24 10° ENE
Cosmos 1603 3.8 00:49:15 10° NW 00:54:51 56° WSW 00:57:17 32° S
SL-19 R/B 4.5 00:51:42 24° S 00:55:50 73° WSW 01:01:54 10° NNW
Cosmos 1461 4.4 00:55:29 23° W 00:57:30 34° NW 01:01:45 10° NNE
Cosmos 2150 Rocket 4.4 01:01:58 28° S 01:04:35 56° ESE 01:09:44 10° NNE
CZ-2D R/B 2.4 01:00:16 10° N 01:05:39 58° WNW 01:08:00 33° SW
MINOTAUR IV R/B 4.4 01:01:27 10° NNW 01:05:57 80° WSW 01:08:58 20° SSE
Cosmos 1340 Rocket 3.2 01:07:07 41° WSW 01:07:48 46° WNW 01:11:37 10° N
Cosmos 1758 3.7 01:08:43 42° WSW 01:09:30 49° WNW 01:13:25 10° N
SL-16 R/B 3.1 01:09:25 30° SW 01:11:30 37° W 01:17:17 10° NNW
H-2A R/B 4.2 01:08:27 10° ESE 01:11:48 25° ENE 01:15:12 10° N
USA 215 4.4 01:06:49 10° ENE 01:12:32 31° SE 01:16:30 17° S
Nadezhda 2 Rocket 4.4 01:06:51 10° N 01:13:06 86° W 01:18:09 16° S
Cosmos 1943 3.4 01:07:59 10° NW 01:13:23 48° WSW 01:16:09 26° S
Cosmos 1703 3.5 01:10:40 10° N 01:14:39 67° ENE 01:17:24 19° SSE
Cosmos 1825 Rocket 4.3 01:11:34 10° N 01:15:49 52° ENE 01:20:03 10° SSE
Cosmos 1626 4.4 01:14:23 10° WNW 01:15:17 12° WNW 01:15:17 12° WNW
Cosmos 1125 Rocket 4.2 01:13:42 20° S 01:17:05 48° ESE 01:22:10 10° NNE
IRS-1C 4.4 01:13:28 10° NNE 01:18:48 63° ESE 01:22:34 19° S
IRS-1D 3.5 01:17:39 10° NNE 01:22:46 78° WNW 01:25:39 27° SSW
Cosmos 2227 Rocket 4.2 01:19:00 10° W 01:22:58 19° NW 01:26:57 10° N
Cosmos 1544 Rocket 4.3 01:22:37 31° WSW 01:24:03 39° WNW 01:28:16 10° N
NPP 4.1 01:19:15 10° N 01:24:24 48° WNW 01:27:04 26° SW
Cosmos 1470 3.9 01:24:19 26° W 01:25:11 29° WNW 01:28:41 10° N
Cosmos 1953 2.4 01:23:54 36° SSW 01:25:23 65° WNW 01:29:27 10° N
Cosmos 1328 3.8 01:24:16 10° N 01:28:18 80° E 01:31:32 15° SSE
AQUA 4.4 01:27:42 10° N 01:32:13 43° WNW 01:34:26 26° WSW
CZ-2D R/B 4.4 01:29:04 10° NNE 01:32:52 41° E 01:36:12 12° SSE
CENTAUR R/B 4.3 01:29:33 10° NW 01:36:45 43° NNE 01:44:51 10° E
Resurs 1-4 Rocket 3.2 01:34:15 10° N 01:38:52 31° WNW 01:41:36 20° WSW
Atlas Centaur 2 4.3 01:38:02 12° S 01:39:23 13° S 01:42:12 10° SE
Meteor 2-16 Rocket 4.4 01:34:25 10° NNW 01:40:33 67° W 01:46:34 10° S
Cosmos 1602 Rocket 4.2 01:38:44 10° NNW 01:42:43 36° W 01:44:26 25° SW
Cosmos 1606 Rocket 3.9 01:42:16 14° S 01:46:04 69° E 01:50:31 10° NNE
USA 267 3.5 01:40:17 10° ESE 01:46:47 74° NNE 01:53:20 10° WNW
IDEFIX/ARIANE 42P 3.0 01:42:44 10° NNE 01:47:55 60° ESE 01:53:04 10° S
SJ 16-02 3.8 01:48:17 10° WNW 01:49:41 11° NW 01:51:04 10° NNW
NOSS 3-1 (C) 4.5 01:48:09 12° W 01:53:09 40° NNW 01:59:35 10° NE
Cosmos 1048 Rocket 4.4 01:51:42 10° NW 01:56:28 39° WSW 02:01:15 10° S
IRS-P3 4.3 01:52:25 10° N 01:57:43 62° WNW 02:01:51 17° SW
Cosmos 1908 3.4 01:56:15 21° SSW 01:58:40 56° WNW 02:02:32 10° N
Cosmos 2263 Rocket 2.9 01:56:40 17° WSW 02:00:31 40° NW 02:05:46 10° NNE
Cosmos 1726 Rocket 3.7 01:56:26 11° S 02:00:47 77° E 02:05:16 10° NNE
Cosmos 1386 Rocket 4.4 01:55:05 10° N 02:01:08 86° W 02:07:09 10° S
Cosmos 1844 4.5 01:55:45 10° S 02:01:18 51° ESE 02:06:52 10° NE
Cosmos 2298 Rocket 4.4 01:57:57 19° SW 02:01:37 52° WNW 02:06:52 10° NNE
Cosmos 2228 3.0 01:59:31 14° SSW 02:03:17 81° W 02:07:44 10° N
Meteor 1-16 Rocket 4.5 02:01:57 17° SW 02:06:05 52° WNW 02:11:37 10° N
Meteor 1-28 Rocket 4.0 02:06:34 17° SSW 02:08:55 33° W 02:12:24 10° NNW
SL-08 R/B 4.0 02:05:26 12° SSW 02:09:44 38° W 02:14:21 10° NNW
ADEOS II 2.8 02:05:45 10° N 02:10:36 39° WNW 02:14:31 15° SW
Spot 4 Rocket 4.0 02:07:23 10° NNE 02:12:35 85° WNW 02:17:44 10° SSW
CZ-2C R/B 3.0 02:09:02 10° NNE 02:12:52 68° ESE 02:16:35 10° S
Cosmos 1356 Rocket 3.3 02:10:31 11° SSW 02:14:31 83° WNW 02:18:38 10° N
Cosmos 1726 4.0 02:14:19 13° W 02:15:55 16° WNW 02:18:19 10° NNW
Cosmos 2285 Rocket 4.3 02:10:59 15° SW 02:16:10 54° WNW 02:22:21 10° NNE
ATLAS CENTAUR R/B 1.7 02:13:46 16° WSW 02:16:47 51° NW 02:20:34 10° NNE
Cosmos 1269 Rocket 4.0 02:13:13 10° NNW 02:18:29 65° WSW 02:23:43 10° S
Cosmos 1300 2.7 02:15:05 10° S 02:18:53 84° ESE 02:22:45 10° NNE
Cosmos 1553 Rocket 4.1 02:15:28 11° SSW 02:21:16 56° WNW 02:27:21 10° N
NOSS 2-2 (C) 4.0 02:18:19 11° SSW 02:21:35 45° SE 02:25:24 10° NE
NOSS 3-2 (A) 4.3 02:14:17 10° NW 02:21:38 77° NE 02:29:59 10° SE
ERS-2 2.1 02:18:59 10° SSE 02:22:38 87° W 02:26:19 10° NNW
Cosmos 2278 Rocket 4.5 02:18:33 10° SSE 02:22:43 21° E 02:26:54 10° NE
Cosmos 1844 Rocket 2.7 02:17:42 10° SSW 02:23:14 86° ESE 02:28:50 10° NNE
OPS 6432 4.5 02:22:09 10° NW 02:25:13 53° SW 02:29:01 10° SSE
Cosmos 1833 Rocket 4.1 02:20:39 10° NNW 02:26:02 43° NE 02:31:24 10° ESE
CZ-4C R/B 2.9 02:23:10 10° S 02:26:27 57° W 02:29:51 10° NNW
NOSS 8 (H) 4.1 02:24:24 15° SW 02:26:52 82° NW 02:29:57 10° NE
Cosmos 1745 Rocket 4.2 02:23:55 10° NNW 02:29:59 52° W 02:35:56 10° SSW
ARIANE 5 R/B 3.0 02:26:05 10° N 02:31:05 46° WNW 02:36:02 10° SW
Cosmos 2084 4.3 02:28:47 11° WSW 02:32:47 44° NW 02:37:05 10° NE
Lacrosse 5 rocket 4.0 02:31:51 10° SSE 02:34:37 16° SE 02:37:25 10° E
SeaSat 1 3.9 02:30:27 10° NE 02:34:59 35° ESE 02:39:29 10° S
Meteor 2-15 4.5 02:33:33 10° SSW 02:39:34 68° WNW 02:45:38 10° N
Cosmos 1867 3.6 02:36:20 10° NW 02:41:51 83° SW 02:47:17 10° SE
CZ-2D R/B 4.3 02:42:23 10° NNW 02:44:37 13° NW 02:46:50 10° WNW
Cosmos 2058 Rocket 3.2 02:42:55 10° SSW 02:47:19 58° WNW 02:51:43 10° N
H-2A R/B 2.5 02:43:50 10° SSW 02:47:39 37° W 02:51:30 10° NNW
CZ-2C R/B 2.5 02:47:13 10° NNE 02:51:50 73° ESE 02:56:30 10° S
Cosmos 2058 3.0 02:48:47 10° N 02:52:59 86° ENE 02:57:11 10° S
S3M 4.5 02:47:06 10° SW 02:53:14 47° WNW 02:59:23 10° N
USA 215 3.4 02:49:32 10° ENE 02:56:07 85° SSE 03:02:41 10° WSW
In-Cosmos 22 Rocket 4.3 02:51:36 10° NNW 02:57:24 67° W 03:03:08 10° S
ATLAS 3B R/B 4.1 02:51:35 10° NW 02:57:59 42° NNE 03:04:34 10° ESE
